sat.trackr.live / text

‹ back to catalog

STARLINK-4045

NORAD 53152 · 2022-083W

PAYLOAD ACTIVE UNKNOWN

§ Identity

Operator
Country
US
Launch date
2022-07-17
Launch site
AFETR
Launch vehicle
Mass (kg)
RCS (m²)

Purposes: comms

External: N2YO · Heavens-Above · Gunter

§ Orbital elements

Epoch: 2026-09-19T13:59:07.456416Z

Period
89.29 min
Inclination
53.2106°
Eccentricity
0.0002731
Mean motion
16.12705414 rev/d
Perigee alt
237.6 km
Apogee alt
241.2 km
Semi-major
6,617.6 km
B*
5.3543e-4
RAAN
317.6642°
Arg perigee
35.2165°
Mean anomaly
324.9052°
Rev number
23,141

§ Raw data

STARLINK-40451 53152U 22083W   26262.58272519  .00618690  22196-3  53543-3 0  99942 53152  53.2106 317.6642 0002731  35.2165 324.9052 16.12705414231416

JSON: /api/v1/satellites/53152 · /tle

For live sub-satellite position, see the globe view (requires WebGL).

§ Visibility from observer

Set your observer location to see the next 7 days of passes ≥ 10°. The values pass through the URL so the page stays shareable.

No JS? Fill the form by hand. The geolocation button needs JavaScript.